Location: ?????????
(54.7630°N, 39.4991°E)
Time: 08:21:45
(UTC+00:00)

Cosmos 1470 Rocket - Pass Details

Date: 14 April 2026
Orbit: 596 x 627 km, 82.5° (Epoch: 13 May)

Event Time Altitude Azimuth Distance (km) Brightness Sun altitude
Rises 17:23:03 0° 203° (SSW) 2,880 6.9 -8.6°
Reaches altitude 10° 17:25:19 10° 209° (SSW) 1,974 6.1 -8.9°
Maximum altitude 17:29:36 53° 286° (WNW) 757 4.5 -9.4°
Drops below altitude 10° 17:33:53 10° 4° (N) 1,970 6.5 -10.0°
Sets 17:36:09 0° 10° (N) 2,874 7.3 -10.2°
